Regional Weather Roundup
Issued by NWS

Home | Current Version | Previous Version | Text Only | Print | Product List | Glossary Off
Versions: 1 2 3 4 5 6 7 8 9 10 11 12 13 14 15 16 17 18 19 20 21 22 23 24 25 26 27 28 29 30 31 32 33 34 35 36 37 38 39 40 41 42 43 44 45 46 47 48 49 50

000
ASUS43 KMPX 180310
RWRMN
WEATHER ROUNDUP FOR MINNESOTA
NATIONAL WEATHER SERVICE TWIN CITIES/CHANHASSEN MN
1000 PM CDT THU APR 17 2014


NOTE: "FAIR" INDICATES FEW OR NO CLOUDS BELOW 12,000 FEET WITH NO
SIGNIFICANT WEATHER AND/OR OBSTRUCTIONS TO VISIBILITY. N/A MEANS
CURRENT SKY AND/OR WEATHER CONDITIONS ARE NOT AVAILABLE.

MNZ060>063-068>070-180400-
   Twin Cities Metro

CITY           SKY/WX    TMP DP  RH WIND       PRES   REMARKS
TWIN CITIES    CLEAR     36  25  64 CALM      30.31S
ST PAUL        CLEAR     34  27  75 NE3       30.33R
CRYSTAL        CLEAR     31  24  75 CALM      30.30S
BLAINE         CLEAR     32  27  80 CALM      30.31S
EDEN PRAIRIE   CLEAR     33  24  69 CALM      30.30S
LAKEVILLE      CLEAR     30  25  80 CALM      30.31S
SOUTH ST PAUL  CLEAR     37  28  71 CALM      30.31F
LAKE ELMO      FAIR      30  28  93 CALM      30.33R
$$
MNZ001>005-007-008-013>017-022>024-027-028-180400-
   Northwest Minnesota

CITY           SKY/WX    TMP DP  RH WIND       PRES   REMARKS
BEMIDJI        MOCLDY    31   9  39 CALM      30.27R
HALLOCK        CLOUDY    30  19  64 N5        30.31S WCI  25
ROSEAU         CLEAR     28  10  47 E3        30.31R
WARROAD        CLEAR     27  18  69 CALM      30.31R
THIEF RVR FALL MOCLDY    32  19  59 NW6       30.30S WCI  26
CROOKSTON      MOCLDY    32  25  74 N5        30.31S WCI  27
FOSSTON        CLOUDY    30  18  59 CALM      30.29R
DETROIT LAKES  PTCLDY    32  21  64 NW5       30.28S WCI  27
MOORHEAD       PTCLDY    36  23  60 E3        30.29S
PARK RAPIDS    PTCLDY    35   7  31 NE3       30.26R
$$
MNZ006-009>011-018-025>026-180400-
   North Central Minnesota

CITY           SKY/WX    TMP DP  RH WIND       PRES   REMARKS
BAUDETTE       CLEAR     26  15  63 CALM      30.30R
FLAG ISLAND    CLEAR     30   9  40 CALM      30.30R
INTL FALLS     CLEAR     27  19  72 E6        30.29R WCI  20
WASKISH        PTCLDY    30  16  55 CALM      30.29R
BIG FORK       CLEAR     28  19  69 CALM      30.29R
LONGVILLE      PTCLDY    27  19  74 CALM      30.27S
GRAND RAPIDS   CLEAR     30  18  59 CALM      30.28R
CRANE LAKE     CLEAR     19  12  73 CALM      30.32R
ORR            CLEAR     27  18  69 CALM      30.27R
COOK           CLEAR     25  21  86 CALM      30.29R
$$
MNZ012-019>021-037-180400-
   Northeast Minnesota

CITY           SKY/WX    TMP DP  RH WIND       PRES   REMARKS
DULUTH         PTCLDY    29  20  69 CALM      30.29R
ELY            CLOUDY    30  21  69 CALM      30.28S
HIBBING        CLEAR     27  20  75 CALM      30.28S
EVELETH        CLEAR     32  21  64 CALM      30.30R
DULUTH HARBOR  CLEAR     30  25  80 CALM      30.33R
TWO HARBORS    CLOUDY    32  21  64 CALM      30.28R
SILVER BAY     CLEAR     30  25  80 NW3       30.28R
GRAND MARAIS     N/A     32  31  96 CALM      30.28R
G MARAIS ARPRT CLOUDY    27  23  86 NW5       30.24R WCI  21
$$
MNZ029>031-032-039>041-046>048-054>057-064-180400-
   West Central Minnesota

CITY           SKY/WX    TMP DP  RH WIND       PRES   REMARKS
FERGUS FALLS   CLEAR     34  16  47 CALM      30.26F
WHEATON        CLEAR     36  27  69 S8        30.31R
MORRIS         CLEAR     32  25  74 S3        30.28S
ALEXANDRIA     CLEAR     33  19  56 S8        30.29R WCI  26
ELBOW LAKE     FAIR      34  23  65 CALM      30.28S
WADENA         CLEAR     32  16  51 W5        30.27R WCI  27
GLENWOOD       CLEAR     30  19  64 SW6       30.29S WCI  24
APPLETON       CLEAR     32  21  64 CALM      30.30R
BENSON         CLEAR     30  21  69 SW3       30.30S
ORTONVILLE     CLEAR     30  19  64 CALM      30.29S
MADISON        CLEAR     34  27  75 S3        30.29F
WILLMAR        FAIR      30  25  80 CALM      30.31S
$$
MNZ033>034-036-042>043-049>051-058-059-180400-
   Central Minnesota

CITY           SKY/WX    TMP DP  RH WIND       PRES   REMARKS
ST CLOUD       CLEAR     32  23  69 S3        30.29S
SAUK CENTRE    FAIR      30  21  69 CALM      30.29R
PAYNESVILLE    CLEAR     30  20  68 CALM      30.30S
AITKIN         PTCLDY    36  23  60 E7        30.27R
PINE RIVER     CLEAR     28  21  74 CALM      30.29S
BRAINERD       CLEAR     38  20  48 CALM      30.28R
STAPLES        CLEAR     32  18  55 W7        30.27R WCI  26
LONG PRAIRIE   FAIR      32  19  59 CALM      30.28R
LITTLE FALLS   CLEAR     32  21  64 CALM      30.29R
LITCHFIELD     CLEAR     30  28  93 CALM      30.31S
BUFFALO        CLEAR     31  24  76 CALM      30.32S
MAPLE LAKE     CLEAR     29  26  86 CALM      30.32R
$$
MNZ037-044-045-052-053-180400-
   East Central Minnesota

CITY           SKY/WX    TMP DP  RH WIND       PRES   REMARKS
PRINCETON      CLEAR     28  23  80 CALM      30.30S
MORA           CLEAR     32  23  69 CALM      30.31R
CAMBRIDGE      CLEAR     34  23  64 CALM      30.29R
RUSH CITY      CLEAR     30  25  81 CALM      30.31R
MOOSE LAKE     CLEAR     30  23  74 CALM      30.28S
HINCKLEY       MOCLDY    30  27  86 CALM      30.30R
CLOQUET        CLEAR     27  25  93 CALM      30.29S
MCGREGOR       CLEAR     32  23  69 NE3       30.30R
$$
MNZ071>073-080-081-089-090-097-098-180400-
   Southwest Minnesota

CITY           SKY/WX    TMP DP  RH WIND       PRES   REMARKS
MONTEVIDEO     CLEAR     30  21  69 W3        30.31S
GRANITE FALLS  CLEAR     28  22  80 S5        30.32S WCI  23
CANBY          CLEAR     29  22  75 S3        30.31R
MARSHALL       PTCLDY    30  21  69 CALM      30.30S
REDWOOD FALLS  CLEAR     33  26  75 CALM      30.31R
OLIVIA         CLEAR     30  27  86 SW3       30.31R
PIPESTONE      CLOUDY    34  25  69 E6        30.27S WCI  29
WINDOM         PTCLDY    30  27  86 N5        30.30S WCI  25
WORTHINGTON    PTCLDY    32  21  64 NE8       30.30R WCI  25
JACKSON        PTCLDY    32  28  86 NE7       30.30R WCI  26
TRACY          PTCLDY    32  26  81 CALM      30.31R
SLAYTON        CLOUDY    31  26  81 NE5       30.30S WCI  27
$$
MNZ065>067-074>077-082>085-091>093-180400-
   South Central Minnesota

CITY           SKY/WX    TMP DP  RH WIND       PRES   REMARKS
MANKATO        CLEAR     34  27  75 N5        30.32R WCI  30
NEW ULM        CLEAR     32  27  80 N3        30.32R
ST JAMES       CLEAR     32  28  86 CALM      30.32S
FAIRMONT       PTCLDY    36  28  75 N3        30.32S
GLENCOE        CLEAR     33  27  77 CALM      30.31R
FARIBAULT      CLEAR     34  27  75 CALM      30.31S
OWATONNA       CLEAR     32  28  86 CALM      30.30S
WASECA         PTCLDY    34  30  86 CALM      30.32S
ALBERT LEA     PTCLDY    30  28  93 CALM      30.31R
$$
MNZ078>079-086>088-094>096-180400-
   Southeast Minnesota

CITY           SKY/WX    TMP DP  RH WIND       PRES   REMARKS
ROCHESTER      CLEAR     32  26  78 CALM      30.30S
RED WING       CLEAR     28  27  93 NE3       30.31S
STANTON        CLEAR     32  28  83 CALM      30.30S
DODGE CENTER   PTCLDY    34  30  86 CALM      30.30R
WINONA         MOCLDY    36  28  75 NE6       30.33S
AUSTIN         PTCLDY    30  28  93 CALM      30.30S
PRESTON        CLOUDY    34  29  80 N3        30.31S
$$
ABBREVIATIONS USED IN REMARKS
   TC - TEMPERATURES IN CELSIUS
  WCI - WIND CHILL INDEX
   HX - HEAT INDEX
  VSB - VISIBILITY
$$



USA.gov is the U.S. government's official web portal to all federal, state and local government web resources and services.